Погода в Шадринске

Погода в Шадринске : погода сейчас, прогноз погоды и архив. Всё, что Вы хотите узнать о погоде в Шадринске!

Хотите узнать прогноз погоды в Шадринске? Тогда Вам сюда: Погода в Шадринске

Поиск расширенной информации на нашем сайте:

Другие новости

Новости СМИ2

Главная страница сайта

Новости сайта

02.10.2013

Напоминаем, что на нашем новом сайте вы можете получить высокодетализированные прогнозы погоды по пунктам России, СНГ и мира (включающие важные для авиации метеовеличины, такие как направление и скорость ветра, видимость, явления погоды, количество и форма облачности, нижняя и верхняя граница облачности), а также ознакомиться с разнообразными материалами по авиационной метеорологии и подборкой полезных ссылок на эту тему.

Сайт Метеоцентр.Азия посвящён разработке технологий оптимизации авиаметеорологического обслуживания, включая проектирование и перспективное создание нескольких автоматизированных авиаметеорологических систем:
- система выпуска высокодетальных прогностических карт явлений погоды для нижнего воздушного пространства по России и ближнему зарубежью;
- система верификации прогнозов TAF (выпускаемых синоптиками официальных АМСГ РФ и ближнего зарубежья) и AUTOTAF (выпускаемых сайтом Метеоцентр.Азия) - выявление ошибок, онлайн-сопоставление с фактической погодой METAR, автоматическое внесение коррективов в прогнозы при резком отклонении фактической погоды от прогноза, подсчёт оправдываемости прогнозов по элементам и в целом;
- система обработки, анализа и отображения авиаметеорологической информации для применения провайдерами метеорологической информации.

Рекомендуем: Информация велотренажеры оптом у нас на сайте.

Погода в Шадринске - сегодня

Время (UTC), дата Ветер
(°,м/с) 
Видим.   Явления Облачность Т
(°С)
Тd
(°С)
f(%) Тe
(°С)
Pmin
(гПа)
dP
(гПа)
Po
(мм)
O2
(г/м3)
Тmin Tmax R s Состояние
почвы
00 22.01.17 200 (Ю) 10 км    8/4 600 м верхняя 
[Sc|Ci sp]
-11.6 -16 70 -16  998.8  0.1  740  313           
03 22.01.17 200 (Ю) 10 км    10/0 средняя 
[As trans]
-10.6 -15.3 68 -14  998.1  -0.6  740  311  -11.6      39  равномерный
сухой снег
100% 
06 22.01.17 200 (Ю) 4000 м  слаб. снег  10/4 300 м средняя 
[Frnb|As trans]
-10.4 -13.5 78 -13  998  0.1  740  311           
09 22.01.17 200 (Ю) 10 км  {снег}  8/4 600 м средняя, верхняя 
[Sc|Ac trans|Ci sp]
-9.7 -13.6 73 -13  996.4  -1.5  739  310           
12 22.01.17 210 (ЮЗ) 10 км  {снег}  6/3 600 м верхняя 
[Sc|Ci sp]
-12.6 -15.8 77 -13  996.2  -0.4  738  313           
15 22.01.17 200 (Ю) 10 км    6/4 600 м верхняя 
[Sc|Ci sp]
-13.9 -17.6 74 -18  995.5  -0.7  738  315    -9.4  0.0     
18 22.01.17 220 (ЮЗ) 4000 м  слаб. снег  10/0 средняя 
[As trans]
-13.1 -16.6 75 -17  995.3  -0.2  738  314           
21 22.01.17 210 (ЮЗ) 4000 м  слаб. снег  10/6 300 м средняя 
[Frnb|As trans]
-13.7 -16.6 79 -18  995.7  0.4  738  314           
00 23.01.17 200 (Ю) 10 км  {снег}  4/0 верхняя 
[Ci sp]
-15.3 -18 80 -18  996.8  0.9  739  317           
03 23.01.17 210 (ЮЗ) 10 км    4/0 верхняя 
[Ci sp]
-15.1 -18.4 76 -19  997.1  0.3  739  317  -16.3    0.0  38  равномерный
сухой снег
100% 
06 23.01.17 270 (З) 10 км    3/3 600 м 
[Sc]
-14.6 -18.9 70 -15  998.2  1.1  740  316           
09 23.01.17 240 (ЮЗ) 10 км  {снег}  6/3 600 м средняя, верхняя 
[Sc|Ac trans|Ci sp]
-10.3 -15 68 -14  998.2  0.2  740  311           
12 23.01.17 220 (ЮЗ) 10 км  {снег}  8/6 600 м верхняя 
[Sc|Ci sp]
-10.9 -14.4 75 -13  999.2  0.9  741  312           
15 23.01.17 210 (ЮЗ) 4000 м  слаб. снег  10/0 средняя 
[As trans]
-10.5 -13.2 81 -15  1000.2  742  312    -9.5  0.0     
18 23.01.17 230 (ЮЗ) 10 км  {снег}  9/9 600 м 
[Sc]
-9.8 -13.8 73 -13  1001.4  1.2  742  311           
21 23.01.17 230 (ЮЗ) 10 км  {снег}  9/8 600 м верхняя 
[Sc|Ci sp]
-10.5 -15.3 68 -15  1002.6  1.2  743  313           
00 24.01.17 240 (ЮЗ) 5{10}  10 км  позёмок{снег}  8/6 600 м верхняя 
[Sc|Ci sp]
-11.4 -15.4 72 -16  1003.9  1.2  744  314           
03 24.01.17 230 (ЮЗ) 6{10}  10 км  позёмок  8/6 600 м верхняя 
[Sc|Ci sp]
-12.7 -17.8 66 -19  1004.8  0.8  745  316  -12.7    0.0  38  равномерный
сухой снег
100% 
06 24.01.17 240 (ЮЗ) 5{11}  10 км  позёмок  8/6 600 м верхняя 
[Sc|Ci sp]
-12.2 -17.4 65 -17  1006.3  1.5  746  316           
09 24.01.17 230 (ЮЗ) 10 км    3/3 600 м верхняя 
[Sc|Ci sp]
-9.8 -16.1 60 -14  1007.2  0.9  747  313           
12 24.01.17 200 (Ю) 10 км    6/3 600 м верхняя 
[Sc|Ci sp]
-12 -17.4 64 -16  1007.7  0.4  747  316           
15 24.01.17 040 (СВ) 10 км    9/9 600 м 
[Sc]
-12.9 -17.6 68 -13  1008.7  748  318    -9.8       
18 24.01.17 060 (СВ) 4000 м  слаб. снег  10/0 средняя 
[As op]
-15.3 -18.3 78 -15  1009.2  0.4  748  321           
21 24.01.17 тихо ()   10 км  {снег}  4/3 600 м верхняя 
[Sc|Ci sp]
-18.6 -20.9 82 -19  1010.4  749  325           
00 25.01.17 тихо ()   10 км  {снег}  4/0 верхняя 
[Ci sp]
-20.7 -23.3 80 -21  1012.6  2.1  750  329           
Время (UTC), дата Ветер
(°,м/с) 
Видим.   Явления Облачность Т
(°С)
Тd
(°С)
f(%) Тe
(°С)
Pmin
(гПа)
dP
(гПа)
Po
(мм)
O2
(г/м3)
Тmin Tmax R s Состояние
почвы

Для получения пояснительной информации подведите курсор к названию столбца.

ПОГОДА в Шадринске - архив

Всё, что Вы хотите узнать о погоде в Шадринске - удобно и подробно!

Выберите нужную дату (начиная с 1 января 2015* года) и нажмите кнопку "Найти".
Будут отображены архивные сводки погоды по пункту Шадринск, начиная с указанной даты.


Отображать данные в формате CSV (для использования в таблицах Excel)


Внимание! Наш архив погоды предназначен исключительно для личного некоммерческого использования в познавательных целях. Если Вам необходимы официальные справки о состоянии погоды (для производственных, юридических, коммерческих и т.п. целей), обращайтесь в органы Росгидромета.

*Примечание: данная дата относится к архиву по метеостанциям СССР (Россия, СНГ, Балтия).
Архив по метеостанциям Зарубежной Европы и Азии (кроме Китая) хранится 10 дней, по другим регионам земного шара (Китай, Африка, Америка, Австралия, Океания) - 1 день.

Шадринск - район местоположения метеостанции


Название, широта, долгота, высота метеостанции:
Шадринск 56.1°ш. 63.6°д. 89 м над ур. моря [Российская Федерация]

Дополнительная информация

В oтличие oт бoльшинства пoгoдных сайтoв мы публикуем пoдрoбную метеoинфoрмацию в детальнoм прoфессиoнальнoм фoрмате.

Характеристики температуры и влажнoсти вoздуха измеряются на высoте 2 м в тени вдали oт зданий и деревьев.
Скoрoсть ветра измеряется на высoте 10 м (на урoвне рoста челoвека скoрoсть ветра ниже в 1.5-2 раза). Если метеoстанция нахoдится в гoрoде или в лесу, тo скoрoсть ветра занижена на 2-4 м/с пo сравнению с oткрытым местoм. Скoрoсть ветра над акватoриями крупных рек и oзёр, а также на вершинах хoлмoв на 2-5 м/с выше, чем в oбычных услoвиях.
Атмoсфернoе давление в разных тoчках местнoсти мoжет значительнo oтличаться oт давления на метеoстанции, в зависимoсти oт услoвий рельефа (при пoдъёме на 10 м давление пoнижается примернo на 1 мм рт.ст.).